This is the latest recevied weather packets stored in our database for station/object K7AEL. If no packets are shown the sender has not sent any weather packets the latest 10 day(s).
| Time | Temp. | Humidity | Pressure | Rain* | Wind** | Luminosity | Snow |
|---|---|---|---|---|---|---|---|
| 1778144968 | 17.22° C | 34% | 1016 hPa | 0 mm | - | 0 W/m² | - |
| 1778144665 | 17.22° C | 34% | 1015.8 hPa | 0 mm | - | 0 W/m² | - |
| 1778144361 | 17.22° C | 34% | 1015.9 hPa | 0 mm | - | 0 W/m² | - |
| 1778144059 | 17.22° C | 34% | 1016 hPa | 0 mm | - | 0 W/m² | - |
| 1778143756 | 17.22° C | 34% | 1016 hPa | 0 mm | - | 0 W/m² | - |
| 1778143452 | 16.67° C | 35% | 1016.3 hPa | 0 mm | - | 0 W/m² | - |
| 1778143150 | 16.67° C | 36% | 1016.1 hPa | 0 mm | - | 0 W/m² | - |
| 1778142846 | 16.67° C | 36% | 1016 hPa | 0 mm | - | 0 W/m² | - |
| 1778142542 | 16.67° C | 37% | 1016.3 hPa | 0 mm | - | 0 W/m² | - |
| 1778142238 | 16.11° C | 37% | 1016.1 hPa | 0 mm | - | 0 W/m² | - |
| 1778141935 | 16.11° C | 38% | 1016.3 hPa | 0 mm | - | 0 W/m² | - |
| 1778141631 | 16.11° C | 38% | 1016.1 hPa | 0 mm | - | 0 W/m² | - |
| 1778141328 | 16.11° C | 39% | 1016.3 hPa | 0 mm | - | 0 W/m² | - |
| 1778141024 | 15.56° C | 40% | 1015.9 hPa | 0 mm | - | 0 W/m² | - |
| 1778140720 | 15.56° C | 41% | 1016.1 hPa | 0 mm | - | 0 W/m² | - |
| 1778140416 | 15.56° C | 42% | 1016.3 hPa | 0 mm | - | 0 W/m² | - |
| 1778140112 | 16.11° C | 41% | 1016.3 hPa | 0 mm | - | 0 W/m² | - |
| 1778139810 | 16.11° C | 40% | 1016.4 hPa | 0 mm | - | 0 W/m² | - |
| 1778139507 | 16.11° C | 40% | 1016.3 hPa | 0 mm | - | 0 W/m² | - |
| 1778139204 | 16.11° C | 40% | 1016.1 hPa | 0 mm | - | 0 W/m² | - |
| 1778138901 | 16.11° C | 40% | 1016.1 hPa | 0 mm | - | 0 W/m² | - |
| 1778138598 | 16.11° C | 39% | 1016 hPa | 0 mm | - | 0 W/m² | - |
| 1778138296 | 16.11° C | 40% | 1016.3 hPa | 0 mm | - | 0 W/m² | - |
| 1778137992 | 16.11° C | 40% | 1016.1 hPa | 0 mm | - | 0 W/m² | - |
| 1778137689 | 16.67° C | 40% | 1016.5 hPa | 0 mm | - | 0 W/m² | - |
* Rain latest hour (hover to see other rain measurements)
** Current wind speed in m/s (hover to see current wind gust speed)